Location: Peebles
(55.6412°N, 3.1714°W)
Time: 05:33:44
(UTC+00:00)

ERS-1 Rocket - Visible Passes

Search period start: 27 January 2022 00:00
Search period end: 06 February 2022 00:00
Orbit: 753 x 757 km, 98.4° (Epoch: 26 January)

Date Brightness Start Highest point End Pass type
(mag) Time Alt. Az. Time Alt. Az. Time Alt. Az.
27 Jan 5.3 19:25:58 10° NNE 19:25:58 10° NNE 19:25:59 10° NNE visible
27 Jan 5.7 21:05:57 11° N 21:05:57 11° N 21:06:12 10° N visible
28 Jan 5.4 20:25:42 12° N 20:25:42 12° N 20:26:12 10° N visible
29 Jan 5.3 19:45:27 12° NNE 19:45:27 12° NNE 19:45:56 10° N visible
29 Jan 5.7 21:25:26 12° NNW 21:25:26 12° NNW 21:25:44 10° NNW visible
30 Jan 5.4 20:45:11 13° N 20:45:11 13° N 20:45:50 10° N visible
31 Jan 5.2 20:04:57 13° N 20:04:57 13° N 20:05:43 10° N visible
31 Jan 5.8 21:44:55 12° NNW 21:44:55 12° NNW 21:45:13 10° NNW visible
01 Feb 5.2 19:24:41 11° NNE 19:24:41 11° NNE 19:25:10 10° NNE visible
01 Feb 5.4 21:04:40 14° N 21:04:40 14° N 21:05:25 10° N visible
02 Feb 5.2 20:24:25 15° N 20:24:25 15° N 20:25:25 10° N visible
02 Feb 5.9 22:04:24 11° NNW 22:04:24 11° NNW 22:04:38 10° NNW visible
03 Feb 5.1 19:44:10 13° NNE 19:44:10 13° NNE 19:45:07 10° N visible
03 Feb 5.5 21:24:09 15° NNW 21:24:09 15° NNW 21:24:56 10° NNW visible
04 Feb 5.2 20:43:54 16° N 20:43:54 16° N 20:45:02 10° N visible
04 Feb 6.0 22:23:52 11° NNW 22:23:52 11° NNW 22:23:59 10° NNW visible
05 Feb 5.0 20:03:38 15° NNE 20:03:38 15° NNE 20:04:54 10° N visible
05 Feb 5.6 21:43:37 15° NNW 21:43:37 15° NNW 21:44:25 10° NNW visible
